TimeCDT,TemperatureF,Dew PointF,Humidity,Sea Level PressureIn,VisibilityMPH,Wind Direction,Wind SpeedMPH,Gust SpeedMPH,PrecipitationIn,Events,Conditions,WindDirDegrees,DateUTC
12:53 AM,69.1,57.0,65,29.99,10.0,SE,9.2,-,N/A,,Clear,140,2013-07-05 05:53:00
1:53 AM,66.9,57.0,70,29.98,10.0,SE,9.2,-,N/A,,Clear,140,2013-07-05 06:53:00
2:53 AM,66.0,55.9,70,29.97,10.0,SSE,6.9,-,N/A,,Clear,160,2013-07-05 07:53:00
3:53 AM,64.0,55.9,75,29.97,10.0,SSE,5.8,-,N/A,,Clear,150,2013-07-05 08:53:00
4:53 AM,64.9,55.9,73,29.98,10.0,SSE,5.8,-,N/A,,Clear,150,2013-07-05 09:53:00
5:53 AM,64.9,55.0,70,29.99,10.0,SSE,4.6,-,N/A,,Clear,150,2013-07-05 10:53:00
6:53 AM,64.9,55.9,73,30.00,10.0,SSE,5.8,-,N/A,,Clear,150,2013-07-05 11:53:00
7:53 AM,69.1,57.9,68,30.01,10.0,SSE,5.8,-,N/A,,Clear,150,2013-07-05 12:53:00
8:53 AM,73.9,59.0,59,30.02,10.0,South,6.9,-,N/A,,Clear,180,2013-07-05 13:53:00
9:53 AM,79.0,61.0,54,30.02,10.0,South,8.1,-,N/A,,Clear,180,2013-07-05 14:53:00
10:53 AM,82.9,59.0,44,30.00,10.0,SSW,10.4,-,N/A,,Clear,200,2013-07-05 15:53:00
11:53 AM,86.0,59.0,40,29.99,10.0,SSW,9.2,-,N/A,,Clear,200,2013-07-05 16:53:00
12:53 PM,87.1,59.0,39,30.00,10.0,SW,8.1,-,N/A,,Clear,230,2013-07-05 17:53:00
1:53 PM,88.0,59.0,37,29.97,10.0,SSW,9.2,-,N/A,,Clear,200,2013-07-05 18:53:00
2:53 PM,89.1,59.0,36,29.96,10.0,South,8.1,-,N/A,,Clear,170,2013-07-05 19:53:00
3:53 PM,89.1,59.0,36,29.96,10.0,South,8.1,-,N/A,,Clear,180,2013-07-05 20:53:00
4:53 PM,89.1,57.0,34,29.94,10.0,South,11.5,-,N/A,,Clear,180,2013-07-05 21:53:00
5:53 PM,88.0,57.0,35,29.92,10.0,SSW,8.1,-,N/A,,Clear,200,2013-07-05 22:53:00
6:53 PM,84.9,55.9,37,29.91,10.0,South,8.1,-,N/A,,Clear,190,2013-07-05 23:53:00
7:53 PM,84.0,57.0,40,29.91,10.0,South,6.9,-,N/A,,Clear,170,2013-07-06 00:53:00
8:53 PM,79.0,57.9,48,29.90,10.0,SE,5.8,-,N/A,,Clear,130,2013-07-06 01:53:00
9:53 PM,78.1,59.0,52,29.92,10.0,SE,6.9,-,N/A,,Clear,140,2013-07-06 02:53:00
10:53 PM,75.0,59.0,57,29.94,10.0,SSE,6.9,-,N/A,,Clear,150,2013-07-06 03:53:00
11:53 PM,73.0,57.0,57,29.95,10.0,SSE,6.9,-,N/A,,Clear,150,2013-07-06 04:53:00